Weather History for Petersburg, WV

Change the Weather History Date:

Thursday, January 1, 2004

  Actual Average (KEKN) Record (KEKN)
Temperature  
Mean Temperature 50 °F 29 °F  
Max Temperature 62 °F 39 °F 70 °F (1930)
Min Temperature 39 °F 20 °F -11 °F (1968)
Degree Days  
Heating Degree Days 14 36  
Month to date heating degree days 36  
Since 1 July heating degree days 2327  
Cooling Degree Days 0 0  
Month to date cooling degree days 0  
Year to date cooling degree days 0  
Moisture  
Dew Point 35 °F    
Average Humidity 57    
Maximum Humidity 82    
Minimum Humidity 39    
Precipitation  
Precipitation 0.00 in 0.10 in 1.47 in (1919)
Month to date precipitation 0.10  
Year to date precipitation 0.10  
Snow  
Snow 0.00 in - - ()
Month to date snowfall  
Since 1 September snowfall  
Snow Depth -    
Sea Level Pressure  
Sea Level Pressure 30.31 in    
Wind  
Wind Speed 8 mph (WSW)    
Max Wind Speed 30 mph    
Max Gust Speed 43 mph    
Visibility 10 miles    
Events      
T = Trace of Precipitation, MM = Missing Value Source: NWS Daily Summary

Daily Weather History Graph

Daily Weather History Graph

Search for Another Location

Airport:

Trip Planner

Search our weather history database for the weather conditions in past years. The results will help you decide how hot, cold, wet, or windy it might be!

Date:

Astronomy

Jan. 01, 2004 Rise Set
Actual Time 7:35 AM EST 5:04 PM EST
Civil Twilight 7:05 AM EST 5:34 PM EST
Nautical Twilight 6:32 AM EST 6:07 PM EST
Astronomical Twilight 5:59 AM EST 6:40 PM EST
Moon 1:11 PM EST (1/1) 2:07 AM EST (1/1)
Length of Visible Light 10h 28m
Length of Day
9h 29m
Waxing Gibbous, 71% of the Moon is Illuminated
Jan 1
Waxing Gibbous
Jan 7
Full
Jan 14
Last Quarter
Jan 21
New
Jan 29
First Quarter

Hourly Weather History & Observations

Time (EST) Temp. Windchill Dew Point Humidity Pressure Visibility Wind Dir Wind Speed Gust Speed Precip Events Conditions
12:16 AM 53.6 °F - 30.2 °F 41% 30.19 in 10.0 mi West 23.0 mph 42.6 mph N/A   Clear
12:36 AM 53.6 °F - 30.2 °F 41% 30.20 in 10.0 mi West 18.4 mph 36.8 mph N/A   Clear
12:56 AM 53.6 °F - 30.2 °F 41% 30.20 in 10.0 mi West 29.9 mph 39.1 mph N/A   Clear
1:16 AM 53.6 °F - 30.2 °F 41% 30.22 in 10.0 mi West 18.4 mph 29.9 mph N/A   Clear
1:36 AM 51.8 °F - 30.2 °F 44% 30.23 in 10.0 mi SSW 15.0 mph 28.8 mph N/A   Clear
1:58 AM 53.6 °F - 32.0 °F 44% 30.24 in 10.0 mi NW 4.6 mph 16.1 mph N/A   Clear
2:17 AM 53.6 °F - 32.0 °F 44% 30.25 in 10.0 mi WNW 3.5 mph - N/A   Clear
2:37 AM 51.8 °F - 32.0 °F 47% 30.26 in 10.0 mi WNW 4.6 mph - N/A   Clear
2:56 AM 51.8 °F - 32.0 °F 47% 30.27 in 10.0 mi ENE 3.5 mph - N/A   Clear
3:16 AM 46.4 °F 45.2 °F 32.0 °F 57% 30.28 in 10.0 mi ENE 3.5 mph - N/A   Clear
3:36 AM 44.6 °F - 30.2 °F 57% 30.28 in 10.0 mi Calm Calm - N/A   Clear
3:59 AM 48.2 °F - 33.8 °F 58% 30.28 in 10.0 mi Calm Calm - N/A   Clear
4:17 AM 44.6 °F 42.2 °F 33.8 °F 66% 30.28 in 10.0 mi NNE 4.6 mph - N/A   Clear
4:36 AM 42.8 °F 41.1 °F 33.8 °F 70% 30.28 in 10.0 mi WSW 3.5 mph - N/A   Clear
4:56 AM 42.8 °F - 32.0 °F 66% 30.29 in 10.0 mi Calm Calm - N/A   Clear
5:16 AM 39.2 °F - 30.2 °F 70% 30.29 in 10.0 mi Calm Calm - N/A   Clear
5:36 AM 42.8 °F - 33.8 °F 70% 30.30 in 10.0 mi Calm Calm - N/A   Clear
5:57 AM 44.6 °F - 33.8 °F 66% 30.31 in 10.0 mi Calm Calm - N/A   Clear
6:16 AM 44.6 °F - 33.8 °F 66% 30.31 in 10.0 mi Calm Calm - N/A   Clear
6:39 AM 46.4 °F - 33.8 °F 62% 30.32 in 10.0 mi Calm Calm - N/A   Clear
6:57 AM 39.2 °F 37.0 °F 33.8 °F 81% 30.34 in 10.0 mi West 3.5 mph - N/A   Clear
7:17 AM 39.2 °F 37.0 °F 30.2 °F 70% 30.34 in 10.0 mi WNW 3.5 mph - N/A   Clear
7:38 AM 42.8 °F 41.1 °F 33.8 °F 70% 30.35 in 10.0 mi West 3.5 mph - N/A   Clear
7:57 AM 41.0 °F - 33.8 °F 76% 30.37 in 10.0 mi Calm Calm - N/A   Clear
8:17 AM 41.0 °F 39.0 °F 33.8 °F 76% 30.37 in 10.0 mi East 3.5 mph - N/A   Clear
8:37 AM 42.8 °F - 35.6 °F 76% 30.38 in 10.0 mi Calm Calm - N/A   Clear
8:57 AM 42.8 °F - 35.6 °F 76% 30.39 in 10.0 mi Calm Calm - N/A   Clear
9:17 AM 46.4 °F 45.2 °F 35.6 °F 66% 30.39 in 10.0 mi West 3.5 mph - N/A   Clear
9:37 AM 53.6 °F - 37.4 °F 54% 30.39 in 10.0 mi West 5.8 mph - N/A   Clear
9:57 AM 53.6 °F - 37.4 °F 54% 30.39 in 10.0 mi West 8.1 mph - N/A   Clear
10:17 AM 53.6 °F - 37.4 °F 54% 30.38 in 10.0 mi West 5.8 mph - N/A   Clear
10:37 AM 51.8 °F - 37.4 °F 58% 30.39 in 10.0 mi SW 3.5 mph - N/A   Clear
10:56 AM 53.6 °F - 37.4 °F 54% 30.39 in 10.0 mi Calm Calm - N/A   Clear
11:17 AM 55.4 °F - 37.4 °F 51% 30.38 in 10.0 mi SSE 3.5 mph - N/A   Clear
11:36 AM 55.4 °F - 37.4 °F 51% 30.37 in 10.0 mi ESE 3.5 mph - N/A   Clear
11:57 AM 55.4 °F - 35.6 °F 47% 30.36 in 10.0 mi Calm Calm - N/A   Clear
12:17 PM 57.2 °F - 37.4 °F 48% 30.35 in 10.0 mi East 4.6 mph - N/A   Clear
12:36 PM 57.2 °F - 37.4 °F 48% 30.34 in 10.0 mi ESE 3.5 mph - N/A   Clear
12:57 PM 55.4 °F - 35.6 °F 47% 30.33 in 10.0 mi SE 5.8 mph - N/A   Clear
1:17 PM 59.0 °F - 37.4 °F 45% 30.32 in 10.0 mi East 6.9 mph - N/A   Clear
1:38 PM 57.2 °F - 35.6 °F 44% 30.31 in 10.0 mi East 3.5 mph - N/A   Clear
1:57 PM 59.0 °F - 35.6 °F 42% 30.31 in 10.0 mi ESE 5.8 mph - N/A   Clear
2:17 PM 60.8 °F - 35.6 °F 39% 30.30 in 10.0 mi East 5.8 mph - N/A   Clear
2:37 PM 60.8 °F - 35.6 °F 39% 30.29 in 10.0 mi East 3.5 mph - N/A   Clear
2:57 PM 60.8 °F - 35.6 °F 39% 30.29 in 10.0 mi Calm Calm - N/A   Clear
3:16 PM 62.6 °F - 37.4 °F 39% 30.29 in 10.0 mi East 3.5 mph - N/A   Clear
3:37 PM 62.6 °F - 37.4 °F 39% 30.28 in 10.0 mi Calm Calm - N/A   Clear
3:57 PM 62.6 °F - 37.4 °F 39% 30.28 in 10.0 mi Calm Calm - N/A   Clear
4:17 PM 60.8 °F - 35.6 °F 39% 30.27 in 10.0 mi Calm Calm - N/A   Clear
4:37 PM 55.4 °F - 37.4 °F 51% 30.27 in 10.0 mi SE 3.5 mph - N/A   Clear
4:58 PM 50.0 °F - 39.2 °F 66% 30.28 in 10.0 mi West 4.6 mph - N/A   Scattered Clouds
5:17 PM 50.0 °F - 39.2 °F 66% 30.30 in 10.0 mi West 5.8 mph - N/A   Scattered Clouds
5:37 PM 46.4 °F - 39.2 °F 76% 30.29 in 10.0 mi Calm Calm - N/A   Mostly Cloudy
5:57 PM 46.4 °F - 39.2 °F 76% 30.29 in 10.0 mi Calm Calm - N/A   Overcast
6:17 PM 46.4 °F - 39.2 °F 76% 30.28 in 10.0 mi Calm Calm - N/A   Overcast
6:37 PM 46.4 °F - 39.2 °F 76% 30.27 in 10.0 mi Calm Calm - N/A   Overcast
6:57 PM 48.2 °F - 42.8 °F 82% 30.26 in 10.0 mi Calm Calm - N/A   Overcast
7:17 PM 48.2 °F - 42.8 °F 82% 30.26 in 10.0 mi Calm Calm - N/A   Overcast
7:38 PM 46.4 °F - 42.8 °F 87% 30.26 in 10.0 mi Calm Calm - N/A   Overcast
7:56 PM 46.4 °F 45.2 °F 41.0 °F 81% 30.26 in 10.0 mi WSW 3.5 mph - N/A   Overcast
8:17 PM 46.4 °F - 39.2 °F 76% 30.24 in 10.0 mi Calm Calm - N/A   Overcast
8:37 PM 46.4 °F 43.5 °F 41.0 °F 81% 30.25 in 10.0 mi West 5.8 mph - N/A   Overcast
8:57 PM 48.2 °F - 42.8 °F 82% 30.25 in 10.0 mi Calm Calm - N/A   Overcast
9:18 PM 48.2 °F - 42.8 °F 82% 30.25 in 10.0 mi Calm Calm - N/A   Overcast
9:37 PM 48.2 °F - 42.8 °F 82% 30.25 in 10.0 mi NW 3.5 mph - N/A   Overcast
9:59 PM 48.2 °F - 42.8 °F 82% 30.24 in 10.0 mi Calm Calm - N/A   Overcast
10:17 PM 44.6 °F - 41.0 °F 87% 30.24 in 10.0 mi Calm Calm - N/A   Overcast
10:37 PM 44.6 °F - 41.0 °F 87% 30.23 in 10.0 mi Calm Calm - N/A   Overcast
10:57 PM 46.4 °F - 42.8 °F 87% 30.22 in 10.0 mi Calm Calm - N/A   Overcast
11:17 PM 46.4 °F - 42.8 °F 87% 30.20 in 10.0 mi Calm Calm - N/A   Overcast
11:37 PM 46.4 °F - 42.8 °F 87% 30.18 in 10.0 mi Calm Calm - N/A   Overcast
11:57 PM 48.2 °F - 41.0 °F 76% 30.17 in 10.0 mi Calm Calm - N/A   Overcast